| time (UTC) | temp C | wind direction | speed KPH | gust KPH | rain 1hr cm | rain 24hr cm | rain mn cm | humidity % | barometer mb |
| 20260502222804 | 18 | 219 | 3.2 | 12.9 | 0.00 | 0.00 | 0.00 | 33 | 1012.7 |
| 20260502222305 | 18 | 193 | 4.8 | 16.1 | 0.00 | 0.00 | 0.00 | 33 | 1012.7 |
| 20260502221303 | 18 | 191 | 4.8 | 9.7 | 0.00 | 0.00 | 0.00 | 32 | 1012.7 |
| 20260502215804 | 18 | 261 | 3.2 | 11.3 | 0.00 | 0.00 | 0.00 | 32 | 1013.0 |
| 20260502214804 | 18 | 234 | 8.0 | 9.7 | 0.00 | 0.00 | 0.00 | 31 | 1013.1 |
| 20260502214304 | 18 | 247 | 9.7 | 16.1 | 0.00 | 0.00 | 0.00 | 31 | 1013.1 |
| 20260502213805 | 18 | 230 | 9.7 | 12.9 | 0.00 | 0.00 | 0.00 | 31 | 1013.1 |
| 20260502213305 | 18 | 244 | 4.8 | 9.7 | 0.00 | 0.00 | 0.00 | 31 | 1013.3 |
| 20260502212804 | 18 | 231 | 8.0 | 14.5 | 0.00 | 0.00 | 0.00 | 30 | 1013.3 |
| 20260502212305 | 19 | 259 | 8.0 | 19.3 | 0.00 | 0.00 | 0.00 | 30 | 1013.4 |
| 20260502211804 | 19 | 236 | 8.0 | 16.1 | 0.00 | 0.00 | 0.00 | 31 | 1013.5 |
| 20260502211304 | 18 | 234 | 6.4 | 12.9 | 0.00 | 0.00 | 0.00 | 31 | 1013.4 |
| 20260502210304 | 19 | 226 | 9.7 | 14.5 | 0.00 | 0.00 | 0.00 | 31 | 1013.6 |
| 20260502205305 | 18 | 188 | 14.5 | 20.9 | 0.00 | 0.00 | 0.00 | 31 | 1014.0 |
| 20260502204804 | 18 | 225 | 4.8 | 11.3 | 0.00 | 0.00 | 0.00 | 33 | 1014.1 |
| 20260502204304 | 18 | 260 | 8.0 | 16.1 | 0.00 | 0.00 | 0.00 | 31 | 1014.3 |
| 20260502203804 | 18 | 266 | 8.0 | 14.5 | 0.00 | 0.00 | 0.00 | 31 | 1014.3 |
| 20260502202804 | 18 | 220 | 8.0 | 9.7 | 0.00 | 0.00 | 0.00 | 32 | 1014.5 |
| 20260502202305 | 18 | 213 | 8.0 | 12.9 | 0.00 | 0.00 | 0.00 | 31 | 1014.6 |
| 20260502201805 | 18 | 261 | 8.0 | 12.9 | 0.00 | 0.00 | 0.00 | 31 | 1014.8 |
| 20260502201305 | 18 | 227 | 8.0 | 16.1 | 0.00 | 0.00 | 0.00 | 33 | 1014.8 |
| 20260502200804 | 17 | 267 | 9.7 | 20.9 | 0.00 | 0.00 | 0.00 | 32 | 1014.9 |
| 20260502200304 | 17 | 210 | 14.5 | 27.4 | 0.00 | 0.00 | 0.00 | 32 | 1015.0 |
| 20260502195805 | 17 | 213 | 14.5 | 20.9 | 0.00 | 0.00 | 0.00 | 34 | 1015.1 |
| 20260502195305 | 17 | 240 | 17.7 | 25.7 | 0.00 | 0.00 | 0.00 | 33 | 1015.3 |
| 20260502194805 | 17 | 221 | 14.5 | 16.1 | 0.00 | 0.00 | 0.00 | 35 | 1015.4 |
| 20260502194304 | 17 | 243 | 9.7 | 20.9 | 0.00 | 0.00 | 0.00 | 33 | 1015.6 |
| 20260502193804 | 17 | 176 | 4.8 | 16.1 | 0.00 | 0.00 | 0.00 | 35 | 1015.7 |
| 20260502193304 | 17 | 215 | 16.1 | 24.1 | 0.00 | 0.00 | 0.00 | 34 | 1015.8 |
| 20260502192804 | 16 | 197 | 8.0 | 12.9 | 0.00 | 0.00 | 0.00 | 33 | 1015.7 |
| 20260502192305 | 17 | 276 | 12.9 | 27.4 | 0.00 | 0.00 | 0.00 | 33 | 1015.9 |
| 20260502191804 | 16 | 231 | 9.7 | 16.1 | 0.00 | 0.00 | 0.00 | 35 | 1016.0 |
| 20260502191305 | 16 | 200 | 16.1 | 24.1 | 0.00 | 0.00 | 0.00 | 33 | 1016.1 |
| 20260502190804 | 16 | 215 | 17.7 | 27.4 | 0.00 | 0.00 | 0.00 | 32 | 1016.1 |
| 20260502190304 | 16 | 258 | 9.7 | 19.3 | 0.00 | 0.00 | 0.00 | 34 | 1016.2 |
| 20260502185804 | 16 | 246 | 8.0 | 24.1 | 0.00 | 0.00 | 0.00 | 34 | 1016.4 |
| 20260502184805 | 16 | 206 | 11.3 | 20.9 | 0.00 | 0.00 | 0.00 | 35 | 1016.5 |
| 20260502183804 | 16 | 184 | 14.5 | 27.4 | 0.00 | 0.00 | 0.00 | 35 | 1016.7 |
| 20260502183305 | 16 | 195 | 11.3 | 25.7 | 0.00 | 0.00 | 0.00 | 36 | 1016.9 |
| 20260502182804 | 15 | 207 | 12.9 | 20.9 | 0.00 | 0.00 | 0.00 | 36 | 1016.9 |
| 20260502182305 | 15 | 187 | 11.3 | 14.5 | 0.00 | 0.00 | 0.00 | 34 | 1017.0 |
| 20260502181804 | 15 | 201 | 16.1 | 27.4 | 0.00 | 0.00 | 0.00 | 35 | 1017.0 |
| 20260502180804 | 15 | 218 | 14.5 | 20.9 | 0.00 | 0.00 | 0.00 | 35 | 1017.2 |
| 20260502180304 | 15 | 211 | 14.5 | 25.7 | 0.00 | 0.00 | 0.00 | 36 | 1017.2 |
| 20260502170304 | 14 | 264 | 9.7 | 12.9 | 0.00 | 0.00 | 0.00 | 37 | 1018.6 |
| 20260502164304 | 13 | 273 | 4.8 | 8.0 | 0.00 | 0.00 | 0.00 | 35 | 1018.8 |
| 20260502163804 | 13 | 224 | 11.3 | 14.5 | 0.00 | 0.00 | 0.00 | 35 | 1018.9 |
| 20260502162804 | 13 | 214 | 11.3 | 16.1 | 0.00 | 0.00 | 0.00 | 35 | 1019.1 |
| 20260502162305 | 13 | 195 | 6.4 | 12.9 | 0.00 | 0.00 | 0.00 | 37 | 1019.1 |
| 20260502161804 | 13 | 211 | 9.7 | 14.5 | 0.00 | 0.00 | 0.00 | 36 | 1019.2 |
| 20260502160804 | 13 | 316 | 1.6 | 14.5 | 0.00 | 0.00 | 0.00 | 37 | 1019.4 |
| 20260502160304 | 13 | 219 | 4.8 | 12.9 | 0.00 | 0.00 | 0.00 | 36 | 1019.4 |
| 20260502152305 | 12 | 275 | 3.2 | 14.5 | 0.00 | 0.00 | 0.00 | 40 | 1019.8 |
| 20260502151804 | 12 | 264 | 3.2 | 12.9 | 0.00 | 0.00 | 0.00 | 39 | 1019.8 |
| 20260502151304 | 12 | 211 | 9.7 | 14.5 | 0.00 | 0.00 | 0.00 | 40 | 1019.8 |
| 20260502150804 | 12 | 314 | 4.8 | 11.3 | 0.00 | 0.00 | 0.00 | 40 | 1019.9 |
| 20260502150304 | 12 | 265 | 6.4 | 12.9 | 0.00 | 0.00 | 0.00 | 40 | 1020.0 |
| 20260502130304 | 6 | 300 | 1.6 | 8.0 | 0.00 | 0.00 | 0.00 | 55 | 1020.7 |
| 20260502123805 | 5 | 297 | 0.0 | 3.2 | 0.00 | 0.00 | 0.00 | 60 | 1020.6 |
| 20260502122804 | 5 | 286 | 1.6 | 3.2 | 0.00 | 0.00 | 0.00 | 61 | 1020.6 |
| 20260502122306 | 5 | 291 | 1.6 | 4.8 | 0.00 | 0.00 | 0.00 | 61 | 1020.5 |
| 20260502121306 | 5 | 292 | 1.6 | 3.2 | 0.00 | 0.00 | 0.00 | 61 | 1020.5 |
| 20260502120803 | 5 | 9 | 0.0 | 3.2 | 0.00 | 0.00 | 0.00 | 62 | 1020.4 |
| 20260502120305 | 4 | 298 | 1.6 | 4.8 | 0.00 | 0.00 | 0.00 | 61 | 1020.4 |
| 20260502115805 | 4 | 273 | 1.6 | 3.2 | 0.00 | 0.00 | 0.00 | 62 | 1020.5 |
| 20260502115306 | 4 | 257 | 1.6 | 3.2 | 0.00 | 0.00 | 0.00 | 62 | 1020.5 |
| 20260502114804 | 3 | 275 | 3.2 | 4.8 | 0.00 | 0.00 | 0.00 | 63 | 1020.5 |
| 20260502114305 | 3 | 284 | 1.6 | 4.8 | 0.00 | 0.00 | 0.00 | 63 | 1020.5 |
| 20260502113804 | 3 | 288 | 1.6 | 1.6 | 0.00 | 0.00 | 0.00 | 64 | 1020.5 |
| 20260502112804 | 3 | 238 | 1.6 | 4.8 | 0.00 | 0.00 | 0.00 | 64 | 1020.4 |
| 20260502111805 | 3 | 239 | 0.0 | 0.0 | 0.00 | 0.00 | 0.00 | 65 | 1020.4 |
| 20260502110804 | 3 | 215 | 0.0 | 0.0 | 0.00 | 0.00 | 0.00 | 64 | 1020.3 |
| 20260502110304 | 3 | 215 | 0.0 | 0.0 | 0.00 | 0.00 | 0.00 | 64 | 1020.3 |
| 20260502105306 | 3 | 215 | 0.0 | 0.0 | 0.00 | 0.00 | 0.00 | 63 | 1020.2 |
| 20260502104804 | 3 | 215 | 0.0 | 0.0 | 0.00 | 0.00 | 0.00 | 63 | 1020.3 |
| 20260502104304 | 3 | 215 | 0.0 | 0.0 | 0.00 | 0.00 | 0.00 | 63 | 1020.2 |
| 20260502103804 | 3 | 215 | 0.0 | 0.0 | 0.00 | 0.00 | 0.00 | 63 | 1020.3 |
| 20260502103304 | 3 | 215 | 0.0 | 0.0 | 0.00 | 0.00 | 0.00 | 62 | 1020.3 |
| 20260502101804 | 3 | 215 | 0.0 | 0.0 | 0.00 | 0.00 | 0.00 | 62 | 1020.2 |
| 20260502101303 | 3 | 215 | 0.0 | 0.0 | 0.00 | 0.00 | 0.00 | 62 | 1020.2 |
| 20260502100304 | 3 | 215 | 0.0 | 1.6 | 0.00 | 0.00 | 0.00 | 61 | 1020.2 |
| 20260502091305 | 3 | 215 | 0.0 | 0.0 | 0.00 | 0.00 | 0.00 | 59 | 1020.1 |
| 20260502090804 | 3 | 215 | 0.0 | 0.0 | 0.00 | 0.00 | 0.00 | 59 | 1020.1 |
| 20260502070804 | 6 | 253 | 3.2 | 4.8 | 0.00 | 0.00 | 0.00 | 49 | 1020.3 |
| 20260502070305 | 6 | 227 | 3.2 | 4.8 | 0.00 | 0.00 | 0.00 | 49 | 1020.4 |
| 20260502065805 | 6 | 246 | 1.6 | 4.8 | 0.00 | 0.00 | 0.00 | 49 | 1020.4 |
| 20260502065306 | 6 | 266 | 3.2 | 4.8 | 0.00 | 0.00 | 0.00 | 49 | 1020.5 |
| 20260502064806 | 6 | 218 | 4.8 | 9.7 | 0.00 | 0.00 | 0.00 | 49 | 1020.5 |
| 20260502064305 | 6 | 244 | 1.6 | 3.2 | 0.00 | 0.00 | 0.00 | 48 | 1020.5 |
| 20260502063805 | 6 | 271 | 1.6 | 3.2 | 0.00 | 0.00 | 0.00 | 48 | 1020.5 |
| 20260502063305 | 6 | 261 | 1.6 | 4.8 | 0.00 | 0.00 | 0.00 | 48 | 1020.5 |
| 20260502062804 | 6 | 177 | 1.6 | 8.0 | 0.00 | 0.00 | 0.00 | 48 | 1020.6 |
| 20260502062306 | 7 | 252 | 1.6 | 8.0 | 0.00 | 0.00 | 0.00 | 47 | 1020.5 |
| 20260502061804 | 7 | 227 | 3.2 | 4.8 | 0.00 | 0.00 | 0.00 | 47 | 1020.5 |
| 20260502060303 | 7 | 255 | 1.6 | 4.8 | 0.00 | 0.00 | 0.00 | 46 | 1020.5 |
| 20260502055805 | 7 | 243 | 1.6 | 4.8 | 0.00 | 0.00 | 0.00 | 46 | 1020.5 |
| 20260502054304 | 7 | 266 | 1.6 | 3.2 | 0.00 | 0.00 | 0.00 | 46 | 1020.6 |
| 20260502053804 | 7 | 264 | 1.6 | 4.8 | 0.00 | 0.00 | 0.00 | 46 | 1020.6 |
| 20260502053305 | 7 | 312 | 1.6 | 4.8 | 0.00 | 0.00 | 0.00 | 46 | 1020.7 |
| 20260502052804 | 7 | 284 | 0.0 | 9.7 | 0.00 | 0.00 | 0.00 | 45 | 1020.6 |
| 20260502052306 | 7 | 257 | 1.6 | 3.2 | 0.00 | 0.00 | 0.00 | 46 | 1020.6 |
| 20260502051804 | 7 | 242 | 3.2 | 4.8 | 0.00 | 0.00 | 0.00 | 46 | 1020.6 |
| 20260502051304 | 7 | 241 | 1.6 | 3.2 | 0.00 | 0.00 | 0.00 | 46 | 1020.6 |
| 20260502050306 | 7 | 281 | 0.0 | 1.6 | 0.00 | 0.00 | 0.00 | 47 | 1020.6 |
| 20260502045804 | 7 | 261 | 1.6 | 4.8 | 0.00 | 0.00 | 0.00 | 48 | 1020.6 |
| 20260502045306 | 6 | 259 | 0.0 | 0.0 | 0.00 | 0.00 | 0.00 | 47 | 1020.6 |
| 20260502044804 | 6 | 259 | 0.0 | 0.0 | 0.00 | 0.00 | 0.00 | 47 | 1020.6 |
| 20260502044304 | 6 | 259 | 0.0 | 0.0 | 0.00 | 0.00 | 0.00 | 47 | 1020.6 |
| 20260502043804 | 6 | 259 | 1.6 | 4.8 | 0.00 | 0.00 | 0.00 | 47 | 1020.5 |
| 20260502043304 | 6 | 247 | 0.0 | 0.0 | 0.00 | 0.00 | 0.00 | 47 | 1020.5 |
| 20260502042804 | 6 | 247 | 0.0 | 0.0 | 0.00 | 0.00 | 0.00 | 47 | 1020.6 |
| 20260502042306 | 6 | 247 | 0.0 | 0.0 | 0.00 | 0.00 | 0.00 | 47 | 1020.5 |
| 20260502041803 | 6 | 247 | 0.0 | 0.0 | 0.00 | 0.00 | 0.00 | 46 | 1020.5 |
| 20260502041304 | 7 | 247 | 0.0 | 0.0 | 0.00 | 0.00 | 0.00 | 46 | 1020.5 |
| 20260502040804 | 7 | 247 | 0.0 | 0.0 | 0.00 | 0.00 | 0.00 | 45 | 1020.6 |
| 20260502040304 | 7 | 247 | 0.0 | 3.2 | 0.00 | 0.00 | 0.00 | 45 | 1020.5 |
| 20260502035804 | 7 | 247 | 0.0 | 1.6 | 0.00 | 0.00 | 0.00 | 45 | 1020.5 |
| 20260502034805 | 7 | 247 | 1.6 | 3.2 | 0.00 | 0.00 | 0.00 | 44 | 1020.6 |
| 20260502033804 | 7 | 262 | 0.0 | 0.0 | 0.00 | 0.00 | 0.00 | 44 | 1020.6 |
| 20260502033304 | 7 | 262 | 0.0 | 0.0 | 0.00 | 0.00 | 0.00 | 43 | 1020.7 |
| 20260502032804 | 7 | 262 | 0.0 | 0.0 | 0.00 | 0.00 | 0.00 | 42 | 1020.7 |
| 20260502032306 | 7 | 262 | 0.0 | 0.0 | 0.00 | 0.00 | 0.00 | 42 | 1020.6 |
| 20260502031804 | 7 | 262 | 0.0 | 0.0 | 0.00 | 0.00 | 0.00 | 42 | 1020.7 |
| 20260502031304 | 7 | 262 | 0.0 | 3.2 | 0.00 | 0.00 | 0.00 | 42 | 1020.6 |
| 20260502030805 | 8 | 262 | 0.0 | 3.2 | 0.00 | 0.00 | 0.00 | 42 | 1020.6 |
| 20260502030304 | 8 | 262 | 0.0 | 3.2 | 0.00 | 0.00 | 0.00 | 42 | 1020.6 |
| 20260502025804 | 8 | 262 | 0.0 | 3.2 | 0.00 | 0.00 | 0.00 | 41 | 1020.6 |
| 20260502025306 | 8 | 278 | 0.0 | 3.2 | 0.00 | 0.00 | 0.00 | 42 | 1020.6 |
| 20260502024304 | 8 | 269 | 0.0 | 0.0 | 0.00 | 0.00 | 0.00 | 41 | 1020.6 |
| 20260502023805 | 8 | 269 | 0.0 | 0.0 | 0.00 | 0.00 | 0.00 | 41 | 1020.6 |
| 20260502022803 | 8 | 269 | 0.0 | 0.0 | 0.00 | 0.00 | 0.00 | 40 | 1020.6 |
| 20260502022306 | 8 | 265 | 0.0 | 0.0 | 0.00 | 0.00 | 0.00 | 40 | 1020.6 |
| 20260502021804 | 8 | 265 | 0.0 | 0.0 | 0.00 | 0.00 | 0.00 | 40 | 1020.5 |
| 20260502020804 | 9 | 265 | 0.0 | 0.0 | 0.00 | 0.00 | 0.00 | 39 | 1020.5 |
| 20260502015804 | 9 | 265 | 0.0 | 0.0 | 0.00 | 0.00 | 0.00 | 36 | 1020.4 |
| 20260502015305 | 10 | 265 | 0.0 | 0.0 | 0.00 | 0.00 | 0.00 | 36 | 1020.3 |
| 20260502014804 | 10 | 321 | 0.0 | 0.0 | 0.00 | 0.00 | 0.00 | 35 | 1020.2 |
| 20260502014305 | 10 | 318 | 0.0 | 0.0 | 0.00 | 0.00 | 0.00 | 34 | 1020.2 |
| 20260502013804 | 10 | 267 | 0.0 | 3.2 | 0.00 | 0.00 | 0.00 | 35 | 1020.1 |
| 20260502013305 | 10 | 290 | 0.0 | 0.0 | 0.00 | 0.00 | 0.00 | 34 | 1020.1 |
| 20260502012804 | 10 | 271 | 0.0 | 3.2 | 0.00 | 0.00 | 0.00 | 34 | 1020.0 |
| 20260502012306 | 10 | 281 | 3.2 | 3.2 | 0.00 | 0.00 | 0.00 | 34 | 1020.1 |
| 20260502011304 | 10 | 291 | 1.6 | 4.8 | 0.00 | 0.00 | 0.00 | 34 | 1020.0 |
| 20260502010804 | 11 | 300 | 0.0 | 3.2 | 0.00 | 0.00 | 0.00 | 33 | 1020.1 |
| 20260502010304 | 11 | 324 | 1.6 | 3.2 | 0.00 | 0.00 | 0.00 | 33 | 1020.0 |
| 20260502005805 | 11 | 319 | 4.8 | 11.3 | 0.00 | 0.00 | 0.00 | 33 | 1019.9 |
| 20260502005306 | 11 | 346 | 3.2 | 11.3 | 0.00 | 0.00 | 0.00 | 33 | 1020.0 |
| 20260502004804 | 11 | 6 | 1.6 | 8.0 | 0.00 | 0.00 | 0.00 | 33 | 1020.0 |
| 20260502003804 | 11 | 43 | 6.4 | 9.7 | 0.00 | 0.00 | 0.00 | 31 | 1020.0 |
| 20260502003304 | 11 | 325 | 3.2 | 8.0 | 0.00 | 0.00 | 0.00 | 31 | 1019.9 |
| 20260502002804 | 11 | 283 | 3.2 | 4.8 | 0.00 | 0.00 | 0.00 | 30 | 1019.9 |
| 20260502002305 | 12 | 233 | 4.8 | 11.3 | 0.00 | 0.00 | 0.00 | 30 | 1020.0 |
| 20260502001304 | 11 | 274 | 3.2 | 8.0 | 0.00 | 0.00 | 0.00 | 31 | 1019.9 |
| 20260502000304 | 12 | 314 | 4.8 | 9.7 | 0.00 | 0.00 | 0.00 | 31 | 1019.9 |
| 20260501235804 | 12 | 351 | 8.0 | 12.9 | 0.00 | 0.00 | 0.00 | 30 | 1019.9 |
| 20260501235305 | 12 | 314 | 8.0 | 9.7 | 0.00 | 0.00 | 0.00 | 30 | 1020.0 |
| 20260501233804 | 12 | 358 | 8.0 | 11.3 | 0.00 | 0.00 | 0.00 | 31 | 1019.9 |
| 20260501233304 | 12 | 339 | 9.7 | 14.5 | 0.00 | 0.00 | 0.00 | 31 | 1019.9 |
| 20260501232804 | 12 | 238 | 3.2 | 11.3 | 0.00 | 0.00 | 0.00 | 31 | 1019.9 |
| 20260501232306 | 12 | 243 | 3.2 | 14.5 | 0.00 | 0.00 | 0.00 | 31 | 1019.9 |
| 20260501231804 | 12 | 320 | 3.2 | 12.9 | 0.00 | 0.00 | 0.00 | 30 | 1019.9 |
| 20260501230805 | 11 | 346 | 4.8 | 9.7 | 0.00 | 0.00 | 0.00 | 34 | 1019.9 |
| 20260501230304 | 12 | 336 | 11.3 | 16.1 | 0.00 | 0.00 | 0.00 | 32 | 1020.0 |
| 20260501225805 | 11 | 22 | 8.0 | 12.9 | 0.00 | 0.00 | 0.00 | 33 | 1020.0 |
| 20260501225306 | 11 | 41 | 8.0 | 11.3 | 0.00 | 0.00 | 0.00 | 32 | 1020.0 |
| 20260501224805 | 11 | 315 | 3.2 | 4.8 | 0.00 | 0.00 | 0.00 | 31 | 1020.0 |
| 20260501224304 | 11 | 41 | 1.6 | 8.0 | 0.00 | 0.00 | 0.00 | 32 | 1020.0 |
| 20260501223805 | 11 | 333 | 4.8 | 12.9 | 0.00 | 0.00 | 0.00 | 31 | 1020.0 |